Location: Boiro
(42.6475°N, 8.8834°W)
Time: 15:45:44
(UTC+01:00)

Explorer 11/Cluster Stage 4 - Pass Details

Date: 03 December 2021
Orbit: 467 x 1255 km, 28.8° (Epoch: 21 January)

Event Time Altitude Azimuth Distance (km) Brightness Sun altitude
Rises 02:42:24 0° 203° (SSW) 3,416 - -63.9°
Reaches altitude 10° 02:46:40 10° 173° (S) 2,683 - -63.4°
Maximum altitude 02:49:04 12° 152° (SSE) 2,632 - -63.0°
Drops below altitude 10° 02:51:36 10° 131° (SE) 2,889 - -62.7°
Sets 02:56:40 0° 104° (ESE) 4,018 - -62.0°
